Location: Newark
(34.3481°N, 134.0494°E)
Time: 03:43:15
(UTC+00:00)

Vanguard 3 - Pass Details

Date: 04 February 2020
Orbit: 508 x 3263 km, 33.3° (Epoch: 16 February)

Event Time Altitude Azimuth Distance (km) Brightness Sun altitude
Rises 06:05:46 0° 249° (WSW) 5,608 12.5 25.4°
Reaches altitude 10° 06:08:55 10° 248° (WSW) 4,903 12.5 25.0°
Maximum altitude 06:24:34 79° 164° (SSE) 3,109 10.5 22.6°
Drops below altitude 10° 06:44:47 10° 82° (E) 6,098 11.2 19.3°
Sets 06:49:14 0° 81° (E) 6,970 11.4 18.6°
